Date String (YYYY-MM-DD hh:mm:ss) UTC,Instrument flags,absolute air pressure of the measurement (hPa),sample flow rate (lpm),inlet stack bypass flow (lpm),air temperature of the measurement (°C),ambient temperature measured by the external sensor (°C),aerosol sample conditioner tube jacket temperature (°C),OPC LED temperature (°C),internal box temperature (°C),relative humidity of the measurement (%),span deviation,mass concentration of particles derived from Lorenz-Mie calculation of OPC scattering (μg/m³),mass concentration of particles derived from Lorenz-Mie calculation of OPC scattering (μg/m³),mass concentration of particles derived from Lorenz-Mie calculation of OPC scattering (μg/m³)
DateTimeUTC,F1_M11,P_M11,Q1_M11,Q2_M11,T1_M11,T2_M11,T3_M11,T4_M11,T5_M11,U1_M11,ZSPAN_M11,X2_M11,X0_M11,X1_M11
2024-01-23 11:00:00,SystemResetWarning,0825.1,5.00,000.00,022.9,022.0,000.0,031.3,024.3,16.6,0002.1,0007.72,0011.97,0007.30
2024-01-23 11:01:00,SystemResetWarning,0825.1,4.99,000.00,022.9,022.0,000.0,031.3,024.3,16.6,0002.2,0007.82,0012.16,0007.38
2024-01-23 11:02:00,SystemResetWarning,0825.1,4.99,000.00,022.9,022.0,000.0,031.3,024.3,16.6,0002.1,0007.90,0012.35,0007.44
2024-01-23 11:03:00,SystemResetWarning,0825.1,5.00,000.00,022.9,022.0,000.0,031.3,024.3,16.6,0002.1,0007.99,0012.57,0007.53
2024-01-23 11:04:00,SystemResetWarning,0825.1,5.00,000.00,022.9,022.0,000.0,031.3,024.3,16.6,0001.9,0008.08,0012.49,0007.63
2024-01-23 11:05:00,SystemResetWarning,0825.1,5.00,000.00,022.9,022.0,000.0,031.3,024.3,16.6,0001.9,0008.16,0012.24,0007.72
2024-01-23 11:06:00,SystemResetWarning,0825.1,5.00,000.00,022.9,022.0,000.0,031.3,024.3,16.6,0002.0,0008.20,0011.82,0007.77
2024-01-23 11:07:00,SystemResetWarning,0825.1,5.00,000.00,022.9,022.0,000.0,031.3,024.3,16.6,0002.0,0008.25,0011.99,0007.83
2024-01-23 11:08:00,SystemResetWarning,0825.1,5.00,000.00,022.9,022.0,000.0,031.3,024.3,16.6,0001.9,0008.28,0012.05,0007.86
2024-01-23 11:09:00,SystemResetWarning,0825.1,5.00,000.00,022.9,022.0,000.0,031.3,024.3,16.6,0002.0,0008.25,0012.02,0007.82
2024-01-23 11:10:00,SystemResetWarning,0825.1,5.00,000.00,022.9,022.0,000.0,031.3,024.3,16.6,0002.1,0008.21,0012.00,0007.80
2024-01-23 11:11:00,SystemResetWarning,0825.1,4.99,000.00,022.9,022.0,000.0,031.3,024.3,16.6,0002.1,0008.20,0012.55,0007.78
2024-01-23 11:12:00,SystemResetWarning,0825.1,4.99,000.00,022.9,022.0,000.0,031.3,024.3,16.6,0002.2,0008.19,0013.06,0007.74
2024-01-23 11:13:00,SystemResetWarning,0825.1,5.00,000.00,022.9,022.0,000.0,031.3,024.3,16.6,0002.3,0008.21,0013.83,0007.72
2024-01-23 11:14:00,SystemResetWarning,0825.1,5.00,000.00,022.9,022.0,000.0,031.3,024.3,16.6,0002.4,0008.23,0014.21,0007.68
2024-01-23 11:15:00,SystemResetWarning,0825.1,5.00,000.00,022.9,022.0,000.0,031.3,024.3,16.6,0002.4,0008.16,0014.80,0007.62
2024-01-23 11:16:00,SystemResetWarning,0825.1,5.00,000.00,022.9,022.0,000.0,031.3,024.3,16.6,0002.3,0008.05,0014.72,0007.52
2024-01-23 11:17:00,SystemResetWarning,0825.1,5.00,000.00,022.9,022.0,000.0,031.2,024.3,16.6,0002.4,0007.94,0014.65,0007.43
2024-01-23 11:18:00,SystemResetWarning,0825.1,5.01,000.00,022.9,022.0,000.0,031.2,024.2,16.6,0002.4,0007.84,0014.39,0007.33
2024-01-23 11:19:00,SystemResetWarning,0825.1,5.01,000.00,022.9,022.0,000.0,031.2,024.2,16.6,0002.3,0007.75,0014.25,0007.23
2024-01-23 11:20:00,SystemResetWarning,0825.1,5.00,000.00,022.9,021.9,000.0,031.2,024.2,16.6,0002.2,0007.66,0014.14,0007.16
2024-01-23 11:21:00,SystemResetWarning,0825.1,5.00,000.00,022.9,021.9,000.0,031.2,024.2,16.6,0002.3,0007.59,0014.14,0007.11
2024-01-23 11:22:00,SystemResetWarning,0825.1,5.00,000.00,022.9,021.9,000.0,031.2,024.2,16.6,0002.4,0007.49,0013.61,0007.04
2024-01-23 11:23:00,SystemResetWarning,0825.0,5.00,000.00,022.8,021.9,000.0,031.2,024.2,16.6,0002.6,0007.37,0013.36,0006.97
2024-01-23 11:24:00,SystemResetWarning,0825.0,5.00,000.00,022.8,021.9,000.0,031.2,024.2,16.6,0002.6,0007.25,0012.42,0006.89
2024-01-23 11:25:00,SystemResetWarning,0825.0,5.00,000.00,022.8,021.9,000.0,031.2,024.2,16.6,0002.5,0007.12,0011.87,0006.80
2024-01-23 11:26:00,SystemResetWarning,0825.0,5.00,000.00,022.8,021.9,000.0,031.2,024.2,16.7,0002.7,0007.06,0011.15,0006.74
2024-01-23 11:27:00,SystemResetWarning,0824.9,4.99,000.00,022.8,021.9,000.0,031.2,024.2,16.7,0002.9,0007.04,0011.16,0006.71
2024-01-23 11:28:00,SystemResetWarning,0824.9,5.00,000.00,022.8,021.9,000.0,031.2,024.2,16.7,0003.1,0007.01,0011.14,0006.69
2024-01-23 11:29:00,SystemResetWarning,0824.9,5.00,000.00,022.8,021.8,000.0,031.2,024.2,16.7,0003.0,0007.00,0011.14,0006.66
2024-01-23 11:30:00,SystemResetWarning,0824.9,5.01,000.00,022.8,021.8,000.0,031.2,024.2,16.8,0003.1,0006.99,0011.21,0006.65
2024-01-23 11:31:00,SystemResetWarning,0824.9,5.00,000.00,022.8,021.8,000.0,031.2,024.2,16.8,0003.2,0006.96,0011.22,0006.61
2024-01-23 11:32:00,SystemResetWarning,0824.9,4.99,000.00,022.8,021.8,000.0,031.2,024.2,16.8,0003.2,0006.93,0011.11,0006.59
2024-01-23 11:33:00,SystemResetWarning,0824.9,5.00,000.00,022.8,021.8,000.0,031.2,024.2,16.8,0003.2,0006.92,0010.83,0006.57
2024-01-23 11:34:00,SystemResetWarning,0825.0,5.01,000.00,022.8,021.8,000.0,031.2,024.2,16.8,0003.2,0006.91,0010.39,0006.57
2024-01-23 11:35:00,SystemResetWarning,0825.0,4.99,000.00,022.8,021.8,000.0,031.2,024.2,16.8,0003.0,0006.87,0010.25,0006.56
2024-01-23 11:36:00,SystemResetWarning,0824.9,5.00,000.00,022.8,021.8,000.0,031.2,024.2,16.7,0002.8,0006.85,0010.18,0006.56
2024-01-23 11:37:00,SystemResetWarning,0825.0,5.01,000.00,022.8,021.8,000.0,031.2,024.2,16.8,0002.7,0006.85,0010.13,0006.56
2024-01-23 11:38:00,SystemResetWarning,0825.0,5.00,000.00,022.8,021.8,000.0,031.2,024.2,16.8,0003.0,0006.86,0010.22,0006.55
2024-01-23 11:39:00,SystemResetWarning,0824.9,5.00,000.00,022.8,021.8,000.0,031.2,024.2,16.8,0002.9,0006.85,0010.13,0006.53
2024-01-23 11:40:00,SystemResetWarning,0825.0,5.00,000.00,022.8,021.8,000.0,031.2,024.2,16.8,0002.8,0006.81,0010.15,0006.52
2024-01-23 11:41:00,SystemResetWarning,0825.0,5.00,000.00,022.8,021.8,000.0,031.2,024.2,16.8,0002.8,0006.81,0010.68,0006.52
2024-01-23 11:42:00,SystemResetWarning,0825.0,5.00,000.00,022.8,021.8,000.0,031.2,024.2,16.8,0002.5,0006.82,0011.09,0006.54
2024-01-23 11:43:00,SystemResetWarning,0825.0,5.00,000.00,022.8,021.8,000.0,031.2,024.2,16.8,0002.7,0006.84,0011.12,0006.54
2024-01-23 11:44:00,SystemResetWarning,0825.0,5.00,000.00,022.8,021.8,000.0,031.2,024.2,16.9,0002.7,0006.85,0011.20,0006.54
2024-01-23 11:45:00,SystemResetWarning,0825.0,5.00,000.00,022.8,021.8,000.0,031.2,024.2,16.9,0002.6,0006.86,0011.21,0006.54
2024-01-23 11:46:00,SystemResetWarning,0825.0,5.00,000.00,022.8,021.8,000.0,031.2,024.2,16.9,0002.6,0006.90,0011.55,0006.54
2024-01-23 11:47:00,SystemResetWarning,0825.0,5.00,000.00,022.8,021.8,000.0,031.1,024.2,16.9,0002.7,0006.92,0011.65,0006.55
2024-01-23 11:48:00,SystemResetWarning,0825.1,5.00,000.00,022.8,021.9,000.0,031.1,024.2,16.9,0002.8,0006.95,0011.67,0006.58
2024-01-23 11:49:00,SystemResetWarning,0825.1,5.00,000.00,022.8,021.9,000.0,031.1,024.2,16.9,0002.8,0006.97,0011.58,0006.62
2024-01-23 11:50:00,SystemResetWarning,0825.1,5.00,000.00,022.8,021.9,000.0,031.1,024.2,16.9,0002.7,0007.03,0011.78,0006.70
2024-01-23 11:51:00,SystemResetWarning,0825.1,5.00,000.00,022.8,021.9,000.0,031.1,024.2,16.9,0002.8,0007.10,0012.01,0006.75
2024-01-23 11:52:00,SystemResetWarning,0825.0,5.00,000.00,022.8,021.9,000.0,031.1,024.1,16.9,0002.8,0007.14,0011.70,0006.79
2024-01-23 11:53:00,SystemResetWarning,0825.0,5.00,000.00,022.7,021.9,000.0,031.1,024.1,16.9,0002.8,0007.19,0010.99,0006.84
2024-01-23 11:54:00,SystemResetWarning,0825.0,5.02,000.00,022.7,021.9,000.0,031.1,024.1,16.9,0002.8,0007.24,0011.05,0006.89
2024-01-23 11:55:00,SystemResetWarning,0825.0,5.00,000.00,022.7,021.9,000.0,031.1,024.1,17.0,0002.9,0007.28,0011.10,0006.94
2024-01-23 11:56:00,SystemResetWarning,0825.0,4.99,000.00,022.7,021.9,000.0,031.1,024.1,17.0,0002.9,0007.31,0011.24,0006.96
2024-01-23 11:57:00,SystemResetWarning,0825.0,5.00,000.00,022.7,021.9,000.0,031.1,024.1,17.0,0002.9,0007.35,0011.40,0007.00
2024-01-23 11:58:00,SystemResetWarning,0825.0,5.01,000.00,022.7,021.9,000.0,031.1,024.1,17.0,0002.9,0007.39,0011.53,0007.02
2024-01-23 11:59:00,SystemResetWarning,0825.1,5.01,000.00,022.7,021.9,000.0,031.1,024.0,17.0,0002.7,0007.44,0011.61,0007.04
